Tracking 34142 objects as of 18-May-2026
HD Live streaming from Space Station
objects crossing your sky now

STARLINK-37477

Track STARLINK-37477 now!
10-day predictions
STARLINK-37477 is classified as:


NORAD ID: 68912
Int'l Code: 2026-097T
Perigee: 391.2 km
Apogee: 393.2 km
Inclination: 97.3 °
Period: 92.3 minutes
Semi major axis: 6763 km
RCS: Unknown
Launch date: April 30, 2026
Source: United States (US)
Launch site: AIR FORCE WESTERN TEST RANGE (AFWTR)
Your satellite tracking list
Your tracking list is empty




NASA's NSSDC Master Catalog

Two Line Element Set (TLE):
1 68912U 26097T   26137.83335647 -.02502499  00000-0 -34413-1 0  9997
2 68912  97.2845 333.5033 0001520  77.6185 359.2917 15.60901151  4048
Source of the keplerian elements: AFSPC